Vero Beach, FL

4:18 AM EST on December 15, 2017 (GMT -0500)
Vero Beach Municipal

Weather History for KVRB - December, 2011

Change the Weather History Date:

Monday, December 19, 2011

  Actual Average Record
Temperature  
Mean Temperature 66 °F 64 °F  
Max Temperature 75 °F 74 °F 85 °F (1961)
Min Temperature 57 °F 54 °F 33 °F (1981)
Degree Days  
Heating Degree Days 0 4  
Month to date heating degree days 9 53  
Since 1 July heating degree days 22 83  
Cooling Degree Days 1 3  
Month to date cooling degree days 113 64  
Year to date cooling degree days 3690 3375  
Growing Degree Days 20 (Base 50)    
Moisture  
Dew Point 53 °F    
Average Humidity 68    
Maximum Humidity 86    
Minimum Humidity 49    
Precipitation  
Precipitation 0.00 in 0.07 in 0.71 in (1983)
Month to date precipitation 3.74 1.33  
Year to date precipitation 63.58 51.01  
Sea Level Pressure  
Sea Level Pressure 30.24 in    
Wind  
Wind Speed 12 mph (ESE)    
Max Wind Speed 20 mph    
Max Gust Speed 25 mph    
Visibility 10 miles    
Events      
T = Trace of Precipitation, MM = Missing Value Source: NWS Daily Summary

Daily Weather History Graph

Daily Weather History Graph

Search for Another Location

Airport or City:

Trip Planner

Search our weather history database for the weather conditions in past years. The results will help you decide how hot, cold, wet, or windy it might be!

Date:

Astronomy

Dec. 19, 2011 Rise Set
Actual Time 7:06 AM EST 5:30 PM EST
Civil Twilight 6:41 AM EST 5:56 PM EST
Nautical Twilight 6:11 AM EST 6:25 PM EST
Astronomical Twilight 5:43 AM EST 6:54 PM EST
Moon 1:34 AM EST (12/19) 1:12 PM EST (12/19)
Length of Visible Light 11h 15m
Length of Day
10h 23m
Waning Crescent, 31% of the Moon is Illuminated
Dec 19
Waning Crescent
Dec 24
New
Jan 1
First Quarter
Jan 9
Full
Jan 16
Last Quarter

Hourly Weather History & Observations

Time (EST) Temp. Dew Point Humidity Pressure Visibility Wind Dir Wind Speed Gust Speed Precip Events Conditions
12:53 AM 66.9 °F 51.1 °F 57% 30.24 in 10.0 mi ENE 10.4 mph - N/A   Clear
1:53 AM 66.0 °F 53.1 °F 63% 30.23 in 10.0 mi East 5.8 mph - N/A   Clear
2:53 AM 66.9 °F 52.0 °F 59% 30.22 in 10.0 mi East 8.1 mph - N/A   Mostly Cloudy
3:53 AM 68.0 °F 51.1 °F 55% 30.22 in 10.0 mi East 10.4 mph - N/A   Mostly Cloudy
4:53 AM 68.0 °F 52.0 °F 56% 30.21 in 10.0 mi ENE 10.4 mph 18.4 mph N/A   Mostly Cloudy
5:53 AM 66.9 °F 51.1 °F 57% 30.23 in 10.0 mi East 10.4 mph - N/A   Scattered Clouds
6:53 AM 68.0 °F 51.1 °F 55% 30.24 in 10.0 mi East 12.7 mph 18.4 mph N/A   Clear
7:53 AM 68.0 °F 52.0 °F 56% 30.25 in 10.0 mi East 11.5 mph - N/A   Scattered Clouds
8:53 AM 71.1 °F 54.0 °F 55% 30.27 in 10.0 mi East 12.7 mph 19.6 mph N/A   Scattered Clouds
9:53 AM 73.0 °F 53.1 °F 49% 30.28 in 10.0 mi East 13.8 mph 21.9 mph N/A   Clear
10:53 AM 73.9 °F 54.0 °F 50% 30.29 in 10.0 mi ESE 15.0 mph 24.2 mph N/A   Scattered Clouds
11:53 AM 73.9 °F 53.1 °F 48% 30.28 in 10.0 mi ESE 16.1 mph 23.0 mph N/A   Partly Cloudy
12:53 PM 75.0 °F 55.0 °F 50% 30.25 in 10.0 mi SE 18.4 mph - N/A   Mostly Cloudy
1:53 PM 75.0 °F 55.0 °F 50% 30.22 in 10.0 mi SE 18.4 mph - N/A   Partly Cloudy
2:53 PM 73.0 °F 55.0 °F 53% 30.22 in 10.0 mi SE 11.5 mph 19.6 mph N/A   Scattered Clouds
3:53 PM 73.4 °F 53.6 °F 50% 30.23 in 10.0 mi ESE 16.1 mph 19.6 mph N/A   Scattered Clouds
4:53 PM 71.1 °F 55.0 °F 57% 30.23 in 10.0 mi ESE 13.8 mph - N/A   Partly Cloudy
5:53 PM 66.9 °F 54.0 °F 63% 30.23 in 10.0 mi ESE 8.1 mph - N/A   Partly Cloudy
6:53 PM 66.0 °F 53.1 °F 63% 30.24 in 10.0 mi SE 8.1 mph - N/A   Partly Cloudy
7:53 PM 69.1 °F 53.1 °F 57% 30.25 in 10.0 mi ESE 10.4 mph - N/A   Mostly Cloudy
8:53 PM 66.9 °F 53.1 °F 61% 30.25 in 10.0 mi SE 8.1 mph - N/A   Mostly Cloudy
9:53 PM 68.0 °F 54.0 °F 61% 30.25 in 10.0 mi ESE 5.8 mph - N/A   Scattered Clouds
10:53 PM 69.1 °F 53.1 °F 57% 30.25 in 10.0 mi ESE 15.0 mph - N/A   Scattered Clouds
11:53 PM 69.1 °F 53.1 °F 57% 30.23 in 10.0 mi SE 11.5 mph - N/A   Mostly Cloudy